QPF
0.02 0.02 0.02 0.02 0.03 0.04 0.04 0.02 0.02 0.02 0.02 0.02 0.03 0.04 0.04 0.04 0.07 0.14 0.18 0.13 0.13 0.13 0.06 0.02 0.01 0.01 0.01 0.01 0.01 0.01 0.03 0.03 0.03 0.04 0.01 0.00 0.00 0.00 0.00 0.00 0.00 0.00 0.00 0.00 0.00 0.00 0.00 0.00 0.00 0.00 0.00 0.00 0.00 0.00
0.02 0.02 0.02 0.03 0.03 0.03 0.03 0.03 0.03 0.02 0.01 0.01 0.01 0.01 0.02 0.03 0.04 0.07 0.07 0.06 0.12 0.17 0.08 0.01 0.01 0.01 0.01 0.00 0.00 0.00 0.00 0.00 0.00 0.00 0.00 0.00 0.00 0.00 0.00 0.00 0.00 0.00 0.00 0.00 0.00 0.00 0.00 0.00 0.00 0.00 0.00 0.00 0.00 0.00
0.01 0.01 0.02 0.02 0.02 0.02 0.03 0.03 0.02 0.02 0.02 0.02 0.02 0.01 0.01 0.02 0.05 0.06 0.04 0.01 0.08 0.19 0.10 0.04 0.00 0.00 0.00 0.00 0.00 0.00 0.00 0.00 0.00 0.00 0.00 0.00 0.00 0.00 0.00 0.00 0.00 0.00 0.00 0.00 0.00 0.00 0.00 0.00 0.00 0.00 0.00 0.00 0.00 0.00
0.05 0.07 0.07 0.03 0.01 0.02 0.02 0.03 0.03 0.02 0.02 0.03 0.04 0.03 0.01 0.03 0.05 0.11 0.12 0.04 0.01 0.05 0.04 0.02 0.00 0.00 0.00 0.00 0.00 0.00 0.00 0.00 0.00 0.01 0.01 0.00 0.00 0.00 0.00 0.00 0.00 0.00 0.00 0.00 0.00 0.00 0.00 0.00 0.00 0.00 0.00 0.00 0.00 0.01
0.08 0.03 0.03 0.02 0.03 0.04 0.02 0.02 0.02 0.01 0.01 0.01 0.02 0.04 0.04 0.04 0.05 0.12 0.20 0.06 0.00 0.00 0.00 0.00 0.00 0.00 0.00 0.00 0.00 0.01 0.01 0.01 0.01 0.02 0.02 0.00 0.00 0.00 0.00 0.00 0.00 0.00 0.00 0.00 0.00 0.00 0.00 0.00 0.00 0.00 0.00 0.00 0.00 0.01
0.03 0.01 0.00 0.02 0.02 0.02 0.02 0.01 0.00 0.00 0.01 0.01 0.00 0.02 0.04 0.06 0.06 0.19 0.41 0.18 0.01 0.00 0.01 0.00 0.00 0.00 0.00 0.00 0.00 0.00 0.02 0.03 0.02 0.01 0.01 0.00 0.00 0.01 0.01 0.02 0.02 0.00 0.00 0.00 0.00 0.00 0.00 0.00 0.01 0.02 0.01 0.01 0.02 0.02
0.00 0.01 0.02 0.01 0.02 0.02 0.00 0.00 0.00 0.01 0.03 0.03 0.01 0.02 0.04 0.04 0.08 0.16 0.08 0.05 0.02 0.01 0.03 0.03 0.00 0.00 0.00 0.00 0.00 0.00 0.02 0.06 0.15 0.07 0.02 0.00 0.00 0.03 0.02 0.06 0.05 0.04 0.05 0.02 0.00 0.00 0.01 0.00 0.01 0.02 0.02 0.01 0.01 0.01
0.01 0.01 0.00 0.02 0.02 0.04 0.06 0.04 0.04 0.03 0.02 0.08 0.12 0.06 0.06 0.12 0.18 0.09 0.01 0.00 0.00 0.04 0.08 0.19 0.09 0.02 0.02 0.03 0.02 0.03 0.03 0.05 0.06 0.19 0.07 0.00 0.02 0.06 0.09 0.07 0.01 0.00 0.01 0.03 0.01 0.00 0.00 0.00 0.01 0.01 0.00 0.01 0.01 0.00
0.01 0.01 0.01 0.07 0.09 0.08 0.07 0.04 0.04 0.07 0.14 0.17 0.14 0.18 0.29 0.22 0.16 0.07 0.01 0.01 0.00 0.02 0.06 0.13 0.18 0.07 0.09 0.09 0.04 0.02 0.03 0.08 0.09 0.06 0.05 0.04 0.08 0.27 0.16 0.04 0.01 0.00 0.00 0.00 0.00 0.00 0.00 0.00 0.00 0.00 0.00 0.00 0.00 0.00
0.01 0.00 0.00 0.02 0.03 0.05 0.09 0.09 0.08 0.11 0.09 0.08 0.10 0.17 0.22 0.10 0.05 0.04 0.07 0.07 0.06 0.09 0.11 0.10 0.06 0.04 0.17 0.12 0.06 0.03 0.01 0.11 0.16 0.14 0.16 0.19 0.07 0.06 0.07 0.07 0.04 0.01 0.02 0.02 0.01 0.00 0.00 0.00 0.00 0.00 0.00 0.00 0.00 0.00
0.01 0.00 0.01 0.01 0.01 0.01 0.02 0.04 0.04 0.04 0.05 0.06 0.07 0.12 0.12 0.05 0.05 0.13 0.16 0.16 0.12 0.10 0.07 0.11 0.04 0.02 0.08 0.06 0.00 0.00 0.00 0.02 0.08 0.08 0.07 0.06 0.02 0.01 0.00 0.00 0.00 0.00 0.00 0.02 0.04 0.03 0.03 0.02 0.01 0.01 0.01 0.01 0.02 0.03
0.03 0.03 0.01 0.00 0.00 0.00 0.00 0.00 0.02 0.04 0.03 0.02 0.06 0.14 0.12 0.10 0.11 0.09 0.06 0.06 0.03 0.03 0.02 0.02 0.01 0.01 0.00 0.01 0.00 0.00 0.01 0.00 0.02 0.06 0.03 0.01 0.01 0.00 0.01 0.03 0.03 0.03 0.04 0.07 0.08 0.07 0.09 0.07 0.04 0.03 0.05 0.04 0.03 0.04
0.00 0.00 0.00 0.00 0.00 0.00 0.00 0.01 0.01 0.00 0.00 0.00 0.00 0.01 0.01 0.00 0.00 0.01 0.00 0.01 0.01 0.01 0.00 0.00 0.00 0.00 0.00 0.00 0.00 0.00 0.01 0.02 0.01 0.03 0.03 0.01 0.01 0.00 0.01 0.01 0.03 0.04 0.03 0.03 0.05 0.05 0.04 0.03 0.02 0.03 0.03 0.04 0.03 0.03
0.00 0.00 0.00 0.00 0.00 0.00 0.00 0.00 0.00 0.00 0.00 0.00 0.00 0.00 0.00 0.00 0.01 0.02 0.02 0.01 0.02 0.02 0.01 0.01 0.00 0.01 0.02 0.08 0.05 0.03 0.03 0.01 0.00 0.01 0.01 0.01 0.01 0.01 0.01 0.01 0.01 0.02 0.02 0.03 0.03 0.03 0.03 0.02 0.03 0.04 0.04 0.05 0.04 0.04
0.00 0.00 0.00 0.00 0.00 0.00 0.00 0.00 0.00 0.00 0.00 0.00 0.00 0.00 0.01 0.03 0.02 0.02 0.02 0.02 0.02 0.03 0.05 0.06 0.03 0.01 0.04 0.14 0.02 0.01 0.01 0.00 0.00 0.00 0.01 0.02 0.01 0.01 0.02 0.02 0.01 0.02 0.04 0.04 0.05 0.04 0.04 0.04 0.04 0.05 0.07 0.07 0.05 0.05
0.00 0.00 0.00 0.00 0.00 0.00 0.00 0.00 0.00 0.00 0.00 0.00 0.00 0.01 0.00 0.01 0.01 0.00 0.01 0.01 0.02 0.04 0.06 0.05 0.03 0.00 0.02 0.06 0.00 0.00 0.00 0.00 0.01 0.01 0.01 0.01 0.02 0.02 0.03 0.03 0.03 0.04 0.04 0.05 0.07 0.07 0.07 0.07 0.06 0.06 0.06 0.05 0.05 0.04
0.00 0.00 0.00 0.00 0.00 0.00 0.00 0.00 0.00 0.00 0.00 0.00 0.00 0.01 0.01 0.01 0.01 0.02 0.03 0.03 0.04 0.04 0.03 0.01 0.00 0.00 0.00 0.00 0.00 0.00 0.00 0.01 0.01 0.03 0.04 0.03 0.03 0.03 0.04 0.05 0.06 0.06 0.06 0.06 0.05 0.04 0.03 0.02 0.01 0.00 0.01 0.01 0.01 0.00
0.03 0.02 0.01 0.00 0.00 0.00 0.00 0.00 0.00 0.00 0.00 0.00 0.01 0.01 0.01 0.03 0.04 0.05 0.07 0.09 0.08 0.07 0.05 0.02 0.00 0.00 0.00 0.00 0.00 0.01 0.01 0.05 0.07 0.05 0.04 0.04 0.03 0.03 0.04 0.04 0.04 0.04 0.03 0.02 0.01 0.01 0.00 0.00 0.00 0.00 0.00 0.00 0.00 0.00
0.03 0.02 0.00 0.00 0.00 0.00 0.00 0.00 0.00 0.00 0.00 0.00 0.01 0.02 0.03 0.05 0.05 0.06 0.05 0.04 0.03 0.02 0.01 0.00 0.00 0.01 0.01 0.02 0.02 0.03 0.02 0.02 0.04 0.04 0.04 0.04 0.04 0.04 0.03 0.03 0.02 0.02 0.01 0.00 0.00 0.00 0.00 0.00 0.00 0.00 0.00 0.00 0.00 0.00
0.05 0.02 0.01 0.00 0.00 0.00 0.00 0.00 0.00 0.00 0.00 0.00 0.01 0.01 0.01 0.01 0.00 0.00 0.00 0.00 0.00 0.00 0.00 0.01 0.05 0.05 0.04 0.05 0.02 0.02 0.02 0.03 0.01 0.01 0.02 0.02 0.02 0.01 0.01 0.01 0.01 0.00 0.00 0.00 0.00 0.00 0.00 0.00 0.00 0.00 0.00 0.00 0.00 0.00
0.01 0.00 0.00 0.00 0.00 0.00 0.00 0.00 0.00 0.00 0.00 0.00 0.00 0.00 0.00 0.00 0.00 0.00 0.00 0.00 0.00 0.01 0.03 0.05 0.04 0.05 0.02 0.02 0.01 0.00 0.00 0.00 0.00 0.00 0.00 0.01 0.01 0.00 0.00 0.00 0.00 0.00 0.00 0.00 0.00 0.00 0.00 0.00 0.00 0.00 0.00 0.00 0.00 0.00
0.00 0.00 0.00 0.00 0.00 0.00 0.00 0.00 0.00 0.00 0.00 0.00 0.00 0.00 0.00 0.00 0.00 0.00 0.00 0.00 0.01 0.02 0.04 0.03 0.02 0.01 0.01 0.01 0.02 0.01 0.00 0.00 0.00 0.00 0.00 0.00 0.00 0.00 0.00 0.00 0.00 0.00 0.00 0.00 0.00 0.00 0.00 0.00 0.00 0.00 0.00 0.00 0.00 0.00
0.00 0.00 0.00 0.00 0.00 0.00 0.02 0.00 0.00 0.01 0.00 0.01 0.00 0.00 0.00 0.00 0.00 0.00 0.00 0.01 0.03 0.04 0.02 0.01 0.01 0.00 0.01 0.01 0.00 0.00 0.00 0.00 0.00 0.00 0.00 0.00 0.00 0.00 0.00 0.00 0.00 0.00 0.00 0.00 0.00 0.00 0.00 0.00 0.00 0.00 0.00 0.00 0.00 0.00
0.00 0.00 0.00 0.00 0.00 0.00 0.00 0.00 0.00 0.00 0.00 0.00 0.00 0.00 0.00 0.00 0.00 0.00 0.00 0.01 0.03 0.02 0.01 0.01 0.00 0.00 0.00 0.00 0.00 0.00 0.00 0.00 0.00 0.00 0.00 0.00 0.00 0.00 0.00 0.00 0.00 0.00 0.00 0.00 0.00 0.00 0.00 0.00 0.00 0.00 0.00 0.00 0.00 0.00
0.00 0.00 0.00 0.00 0.00 0.00 0.00 0.00 0.00 0.00 0.00 0.00 0.00 0.00 0.00 0.00 0.00 0.00 0.00 0.01 0.01 0.01 0.00 0.00 0.00 0.00 0.00 0.00 0.00 0.00 0.00 0.00 0.00 0.00 0.00 0.00 0.00 0.00 0.00 0.00 0.00 0.00 0.00 0.00 0.00 0.00 0.00 0.00 0.00 0.00 0.00 0.00 0.00 0.00
0.00 0.00 0.00 0.00 0.00 0.00 0.00 0.00 0.00 0.00 0.00 0.00 0.00 0.00 0.00 0.00 0.00 0.00 0.00 0.00 0.00 0.00 0.00 0.00 0.00 0.00 0.00 0.00 0.00 0.00 0.00 0.00 0.00 0.00 0.00 0.00 0.00 0.00 0.00 0.00 0.00 0.00 0.00 0.00 0.00 0.00 0.00 0.00 0.00 0.00 0.00 0.00 0.00 0.00
0.00 0.00 0.00 0.00 0.00 0.00 0.00 0.00 0.00 0.00 0.00 0.00 0.00 0.00 0.00 0.00 0.00 0.00 0.00 0.00 0.00 0.00 0.00 0.00 0.00 0.00 0.00 0.00 0.00 0.00 0.00 0.00 0.00 0.00 0.00 0.00 0.00 0.00 0.00 0.00 0.00 0.00 0.00 0.00 0.00 0.00 0.00 0.00 0.00 0.00 0.00 0.00 0.00 0.00
0.00 0.00 0.00 0.00 0.00 0.00 0.00 0.00 0.00 0.00 0.00 0.00 0.00 0.00 0.00 0.00 0.00 0.00 0.00 0.01 0.00 0.00 0.00 0.00 0.00 0.00 0.00 0.00 0.00 0.00 0.00 0.00 0.00 0.00 0.00 0.00 0.00 0.00 0.00 0.00 0.00 0.00 0.00 0.00 0.00 0.00 0.00 0.00 0.00 0.00 0.00 0.00 0.00 0.00
0.00 0.00 0.00 0.00 0.00 0.00 0.00 0.00 0.00 0.00 0.00 0.00 0.00 0.00 0.00 0.01 0.01 0.01 0.01 0.00 0.00 0.00 0.00 0.00 0.00 0.00 0.00 0.00 0.00 0.00 0.00 0.00 0.00 0.00 0.00 0.00 0.00 0.00 0.00 0.00 0.00 0.00 0.00 0.00 0.00 0.00 0.00 0.00 0.00 0.00 0.00 0.00 0.00 0.00
0.00 0.00 0.00 0.00 0.00 0.00 0.01 0.00 0.00 0.00 0.00 0.00 0.00 0.00 0.01 0.02 0.02 0.00 0.00 0.00 0.00 0.00 0.00 0.00 0.00 0.00 0.00 0.00 0.00 0.00 0.00 0.00 0.00 0.00 0.00 0.00 0.00 0.00 0.00 0.00 0.00 0.00 0.00 0.00 0.00 0.00 0.00 0.00 0.00 0.00 0.00 0.00 0.00 0.00
0.00 0.00 0.00 0.00 0.00 0.00 0.00 0.00 0.00 0.00 0.00 0.00 0.00 0.00 0.00 0.01 0.01 0.01 0.00 0.00 0.00 0.00 0.00 0.00 0.00 0.00 0.00 0.00 0.00 0.00 0.00 0.00 0.00 0.00 0.00 0.00 0.00 0.00 0.00 0.00 0.00 0.00 0.00 0.00 0.00 0.00 0.00 0.00 0.00 0.00 0.00 0.00 0.00 0.00
0.00 0.00 0.00 0.00 0.00 0.00 0.00 0.00 0.00 0.00 0.00 0.00 0.00 0.00 0.00 0.00 0.00 0.00 0.01 0.01 0.00 0.00 0.00 0.00 0.00 0.00 0.00 0.00 0.00 0.00 0.00 0.00 0.00 0.00 0.00 0.00 0.00 0.00 0.00 0.00 0.00 0.00 0.00 0.00 0.00 0.00 0.00 0.00 0.00 0.00 0.00 0.00 0.00 0.00
0.00 0.00 0.00 0.00 0.00 0.00 0.00 0.00 0.00 0.00 0.00 0.00 0.00 0.00 0.00 0.00 0.00 0.00 0.00 0.00 0.00 0.00 0.00 0.00 0.00 0.00 0.00 0.00 0.00 0.00 0.00 0.00 0.00 0.00 0.00 0.00 0.00 0.00 0.00 0.00 0.00 0.00 0.00 0.00 0.00 0.00 0.00 0.00 0.00 0.00 0.00 0.00 0.00 0.00
MSLP
1001.27 1001.05 1000.82 1000.55 1000.39 1000.18 1000.05 999.93 999.73 999.71 1000.21 1000.91 1001.57 1002.14 1002.78 1003.42 1004.04 1004.74 1005.25 1005.86 1006.76 1007.11 1007.09 1006.61 1006.72 1007.21 1007.77 1008.14 1008.64 1009.05 1010.00 1010.42 1011.11 1011.46 1011.80 1011.91 1011.85 1011.04 1010.45 1009.97 1009.70 1009.79 1010.23 1010.32 1010.29 1009.75 1007.67 1004.65 1004.78 1004.37 1003.73 1002.98 1003.01 1002.81
999.39 999.24 999.08 998.87 998.68 998.55 998.39 998.31 998.40 998.68 999.13 999.62 1000.22 1000.91 1001.62 1002.37 1003.21 1004.20 1004.79 1005.35 1005.98 1006.72 1006.77 1006.63 1006.35 1006.19 1006.20 1006.38 1006.90 1007.67 1007.64 1008.26 1009.00 1010.10 1010.93 1011.14 1011.42 1010.99 1010.11 1009.75 1009.09 1009.14 1008.58 1008.84 1008.65 1006.92 1005.45 1004.62 1003.83 1003.36 1003.26 1003.09 1002.76 1002.72
997.77 997.60 997.45 997.32 997.15 996.95 996.91 996.90 996.97 997.07 997.61 998.24 998.92 999.67 1000.44 1001.29 1002.08 1003.14 1004.13 1004.87 1006.00 1006.28 1006.66 1006.62 1006.33 1006.03 1006.10 1006.24 1006.33 1007.08 1007.35 1007.20 1007.58 1007.86 1009.12 1009.76 1009.90 1009.81 1009.89 1009.35 1008.75 1008.25 1007.78 1007.94 1007.70 1005.74 1005.14 1004.31 1003.71 1003.75 1003.32 1002.77 1002.41 1002.28
996.43 996.18 995.97 995.80 995.64 995.52 995.42 995.31 995.26 995.56 996.11 996.73 997.49 998.35 999.29 1000.22 1001.21 1002.28 1003.05 1003.87 1005.11 1005.67 1006.13 1006.17 1005.82 1005.52 1004.99 1005.47 1005.84 1006.23 1006.61 1006.75 1007.18 1007.63 1008.29 1008.66 1009.13 1008.48 1008.93 1008.40 1008.37 1007.69 1007.45 1007.27 1006.60 1005.84 1005.29 1004.44 1004.61 1004.44 1003.67 1002.69 1002.28 1002.05
995.12 994.88 994.58 994.27 993.96 993.96 993.89 993.85 993.99 994.29 994.75 995.32 996.06 996.95 998.11 999.28 1000.46 1001.67 1002.35 1003.09 1003.84 1004.77 1005.38 1005.48 1005.11 1004.63 1004.70 1004.98 1005.23 1005.72 1006.18 1006.67 1007.32 1007.83 1008.25 1008.21 1008.10 1008.12 1008.39 1008.35 1008.23 1007.95 1007.97 1007.81 1007.06 1007.15 1006.97 1006.24 1005.66 1005.49 1004.72 1003.76 1004.01 1002.84
994.25 994.06 993.85 993.53 993.38 993.21 993.10 993.04 993.17 993.45 993.86 994.39 995.12 995.98 997.11 998.48 1000.01 1001.06 1002.07 1002.97 1003.37 1003.94 1005.02 1005.41 1004.62 1004.24 1004.20 1004.59 1005.10 1005.37 1005.79 1006.36 1006.97 1007.47 1007.68 1007.27 1007.10 1007.37 1008.33 1008.68 1008.58 1008.49 1008.44 1008.47 1007.96 1007.68 1007.50 1007.07 1006.72 1006.57 1006.13 1004.89 1005.18 1005.58
994.35 993.92 993.65 993.36 993.10 992.81 992.68 992.65 992.67 992.72 992.66 993.04 994.28 995.48 996.73 998.13 999.82 1000.78 1000.97 1001.30 1003.02 1004.10 1004.79 1005.22 1004.54 1003.70 1003.76 1004.31 1004.81 1005.36 1005.43 1005.98 1006.63 1006.87 1007.06 1007.33 1007.30 1007.49 1008.46 1009.25 1009.69 1009.68 1009.55 1009.02 1008.48 1008.44 1007.53 1007.53 1007.88 1007.78 1007.13 1005.96 1006.74 1007.22
994.69 994.44 994.08 993.64 993.29 993.07 992.63 992.20 992.14 992.40 992.18 992.36 994.00 995.48 996.99 998.64 1000.01 1000.50 1000.82 1001.09 1002.46 1004.04 1004.81 1005.04 1004.17 1003.84 1003.55 1003.94 1004.51 1004.78 1005.35 1005.88 1006.23 1006.73 1006.46 1007.44 1007.99 1008.54 1009.72 1010.56 1010.76 1010.80 1010.26 1009.39 1009.18 1009.34 1008.99 1008.89 1008.87 1008.56 1008.89 1007.77 1008.30 1008.72
995.27 995.06 994.77 994.33 994.11 993.67 993.37 993.15 993.20 992.87 992.86 993.53 994.94 996.53 998.06 999.24 999.84 1000.31 1001.23 1002.26 1002.83 1003.92 1004.40 1004.55 1004.16 1003.72 1003.38 1003.55 1003.99 1004.70 1004.94 1005.82 1006.29 1006.39 1007.01 1007.37 1009.10 1010.46 1011.65 1011.90 1011.89 1011.84 1011.75 1010.85 1010.10 1009.90 1009.76 1009.71 1009.81 1009.73 1009.75 1009.15 1009.99 1010.48
995.86 995.78 995.65 995.32 995.12 995.04 994.65 994.50 994.83 994.29 994.70 994.90 996.37 997.64 999.04 999.63 1000.41 1000.96 1002.72 1003.25 1003.77 1003.94 1004.06 1004.05 1003.84 1003.68 1003.59 1003.39 1004.00 1004.87 1005.25 1005.75 1006.47 1006.72 1007.47 1009.26 1011.21 1012.32 1012.89 1013.19 1013.22 1012.92 1012.46 1011.70 1011.03 1010.74 1010.81 1010.62 1010.73 1010.86 1010.27 1011.09 1011.37 1011.54
996.67 996.54 996.47 996.38 996.19 995.83 995.78 995.95 995.76 995.64 995.90 996.84 997.93 998.30 999.76 1000.27 1001.09 1002.23 1003.13 1003.45 1003.94 1004.09 1003.96 1003.68 1003.60 1003.02 1003.42 1002.96 1003.39 1004.11 1004.97 1005.82 1006.62 1007.48 1008.37 1010.76 1012.55 1013.56 1014.01 1014.19 1014.18 1013.91 1013.28 1012.71 1012.48 1012.41 1012.20 1012.30 1012.09 1011.90 1012.03 1012.64 1012.69 1012.96
997.22 997.11 996.99 996.88 996.70 996.63 996.44 996.49 996.75 997.03 997.20 997.75 998.61 1000.03 1000.82 1001.89 1002.60 1003.10 1003.52 1003.80 1003.68 1003.79 1003.73 1003.47 1003.16 1003.05 1003.28 1002.99 1003.65 1004.57 1005.20 1006.20 1007.66 1008.92 1010.30 1012.33 1013.75 1014.45 1014.74 1014.91 1014.89 1014.58 1013.98 1013.69 1013.68 1013.63 1013.65 1013.43 1013.55 1013.23 1013.64 1014.21 1014.05 1014.26
997.86 997.71 997.58 997.48 997.46 997.33 997.35 997.32 997.14 997.75 997.80 998.63 1000.04 1002.38 1003.54 1004.94 1005.30 1005.50 1005.09 1004.88 1004.62 1004.61 1004.48 1003.85 1003.73 1003.75 1003.79 1003.74 1004.47 1005.06 1006.28 1008.05 1009.18 1011.07 1013.18 1014.28 1014.94 1015.30 1015.43 1015.46 1015.82 1015.57 1015.26 1015.12 1015.16 1015.02 1014.83 1014.63 1014.78 1014.32 1015.07 1015.67 1015.78 1015.90
998.54 998.52 998.44 998.42 998.35 998.10 997.89 997.80 997.77 998.23 999.11 1001.26 1003.03 1005.65 1006.78 1007.93 1007.83 1007.51 1007.11 1006.59 1006.20 1005.69 1005.26 1004.76 1004.56 1004.74 1005.03 1005.28 1006.21 1007.31 1009.14 1009.72 1011.97 1013.63 1014.97 1015.76 1016.15 1016.43 1016.62 1016.94 1016.74 1016.68 1016.64 1016.41 1016.39 1016.41 1016.19 1016.10 1016.34 1016.53 1016.91 1017.29 1017.30 1017.43
999.10 999.20 999.14 999.32 998.98 998.86 998.63 998.37 998.41 998.84 1001.58 1004.18 1005.83 1008.38 1009.40 1009.60 1009.23 1008.65 1008.01 1007.38 1007.05 1006.42 1005.80 1005.46 1005.71 1006.26 1007.03 1007.72 1008.94 1009.84 1011.35 1013.22 1014.40 1015.67 1016.43 1016.92 1017.23 1017.39 1017.65 1017.78 1017.87 1017.76 1017.62 1017.55 1017.54 1017.51 1017.65 1017.78 1017.86 1018.18 1018.62 1018.91 1018.91 1018.86
999.32 999.36 999.97 1000.00 999.58 999.33 999.20 999.17 999.65 1001.00 1004.55 1007.15 1009.36 1010.33 1010.55 1010.32 1009.94 1009.28 1008.79 1008.16 1007.64 1007.01 1006.39 1006.32 1007.00 1008.10 1009.45 1010.28 1011.44 1012.88 1013.86 1015.39 1016.39 1016.98 1017.56 1017.91 1018.23 1018.49 1018.73 1018.77 1018.79 1018.64 1018.50 1018.54 1018.75 1018.97 1019.09 1019.20 1019.42 1019.77 1019.91 1020.14 1020.23 1020.24
999.85 1000.43 1000.47 1000.16 999.95 999.71 999.39 1000.26 1002.32 1005.37 1008.07 1009.98 1011.72 1011.86 1011.79 1011.58 1011.24 1010.60 1009.83 1009.05 1008.28 1007.64 1007.71 1008.09 1009.02 1010.54 1011.20 1012.56 1014.09 1015.01 1016.18 1016.96 1017.42 1017.99 1018.44 1018.81 1019.13 1019.47 1019.61 1019.64 1019.72 1019.76 1019.92 1019.95 1020.10 1020.37 1020.58 1021.06 1021.00 1021.00 1021.16 1021.82 1021.89 1022.11
1000.74 1000.89 1000.58 1000.29 1000.08 1000.27 1001.31 1002.87 1005.65 1008.54 1011.23 1012.47 1012.67 1012.72 1012.30 1012.06 1011.60 1010.93 1010.26 1009.35 1008.46 1008.57 1009.29 1010.39 1011.27 1012.41 1013.75 1014.85 1015.94 1016.73 1017.34 1017.91 1018.42 1018.97 1019.47 1019.85 1020.19 1020.49 1020.65 1020.84 1021.08 1021.20 1021.37 1021.60 1021.84 1022.05 1022.22 1022.27 1022.26 1022.50 1022.77 1023.11 1023.32 1023.59
1001.09 1001.03 1000.99 1000.76 1000.60 1001.63 1003.85 1006.04 1007.37 1010.53 1012.73 1013.07 1013.27 1013.08 1012.79 1012.52 1012.06 1011.57 1010.88 1010.39 1009.89 1009.87 1010.60 1012.11 1013.69 1014.77 1015.74 1016.40 1016.92 1017.59 1018.16 1018.71 1019.52 1020.26 1020.77 1021.14 1021.36 1021.64 1021.92 1022.13 1022.32 1022.56 1022.94 1023.28 1023.58 1023.81 1023.99 1023.98 1024.08 1024.20 1024.45 1024.74 1025.12 1025.50
1001.47 1001.50 1001.27 1001.05 1001.05 1002.93 1005.66 1007.71 1008.53 1010.75 1012.79 1013.53 1013.51 1013.46 1013.39 1013.43 1013.09 1012.25 1011.55 1011.07 1010.92 1011.60 1013.33 1015.13 1016.48 1017.03 1017.26 1017.68 1018.00 1018.51 1019.12 1019.74 1020.28 1021.03 1021.98 1022.49 1022.77 1022.92 1023.26 1023.48 1023.91 1024.34 1024.71 1025.07 1025.30 1025.26 1025.27 1025.45 1025.74 1025.96 1026.18 1026.46 1026.76 1027.31
1001.81 1001.79 1001.69 1001.67 1002.70 1004.08 1006.73 1008.38 1009.96 1011.41 1012.56 1013.18 1013.52 1013.63 1014.12 1014.09 1014.03 1013.84 1013.53 1013.23 1013.20 1015.35 1017.16 1018.32 1018.56 1018.84 1019.00 1019.25 1019.55 1019.89 1020.47 1020.91 1021.46 1021.97 1022.88 1023.68 1024.20 1024.45 1024.91 1025.30 1025.59 1025.86 1026.15 1026.45 1026.56 1026.77 1026.79 1027.12 1027.46 1027.65 1027.78 1028.14 1028.24 1028.37
1002.25 1002.02 1002.55 1002.75 1004.25 1005.99 1007.84 1008.98 1009.98 1011.08 1012.14 1013.26 1013.56 1014.22 1015.24 1015.97 1016.05 1016.18 1016.37 1016.47 1017.95 1019.39 1019.47 1019.94 1020.14 1020.24 1020.55 1021.01 1021.41 1021.67 1022.13 1022.47 1023.10 1023.73 1024.35 1024.86 1025.51 1026.04 1026.41 1026.65 1026.70 1027.06 1027.31 1027.66 1027.97 1028.37 1028.55 1028.57 1028.71 1028.86 1029.03 1029.48 1029.34 1029.57
1002.51 1002.62 1003.64 1004.51 1006.24 1008.16 1010.26 1010.05 1010.55 1011.47 1012.64 1013.94 1014.49 1015.55 1016.85 1017.64 1017.93 1017.78 1019.01 1020.20 1021.04 1021.48 1021.47 1021.51 1021.75 1021.97 1022.25 1022.77 1022.95 1023.34 1023.66 1024.01 1024.74 1025.44 1025.90 1026.28 1026.73 1027.18 1027.35 1027.67 1027.90 1028.20 1028.52 1028.85 1029.02 1029.25 1029.56 1029.74 1029.97 1030.10 1030.40 1030.68 1030.75 1030.98
1003.34 1004.86 1006.22 1007.52 1008.33 1010.63 1010.95 1011.51 1011.78 1012.73 1013.69 1014.82 1016.03 1017.49 1018.38 1018.92 1019.26 1020.30 1021.71 1022.47 1022.95 1022.90 1022.89 1023.03 1023.09 1023.32 1023.70 1024.14 1024.64 1025.08 1025.35 1025.53 1026.04 1026.75 1026.90 1027.18 1027.71 1028.23 1028.42 1028.66 1028.86 1029.02 1029.29 1029.71 1030.10 1030.44 1030.71 1030.91 1031.13 1031.29 1031.45 1031.61 1031.85 1032.02
1005.59 1008.53 1009.02 1010.05 1010.45 1011.67 1012.96 1013.85 1014.30 1014.68 1016.36 1016.87 1017.81 1018.93 1019.60 1019.88 1021.32 1022.61 1023.56 1024.13 1024.39 1024.57 1024.63 1024.50 1024.57 1024.92 1025.32 1025.82 1026.18 1026.31 1026.32 1026.40 1026.78 1027.44 1027.99 1028.02 1028.50 1029.00 1029.40 1029.65 1029.81 1029.91 1030.11 1030.53 1031.17 1031.39 1031.68 1031.85 1031.94 1032.08 1032.27 1032.38 1032.53 1032.62
1009.19 1011.08 1011.29 1012.28 1012.82 1013.35 1014.71 1015.93 1016.33 1017.04 1017.56 1018.62 1019.60 1020.32 1020.82 1021.70 1023.01 1024.14 1024.46 1024.84 1025.28 1025.61 1026.02 1025.85 1025.79 1026.13 1026.52 1026.70 1027.05 1027.25 1027.41 1027.32 1027.59 1028.14 1028.75 1028.78 1029.09 1029.65 1030.16 1030.45 1030.54 1030.69 1030.72 1030.99 1031.66 1032.07 1032.27 1032.42 1032.59 1032.73 1032.84 1032.91 1032.93 1033.01
1012.02 1013.17 1013.56 1014.28 1014.50 1014.99 1016.58 1017.38 1017.84 1018.37 1019.29 1020.08 1020.92 1021.69 1022.35 1023.88 1024.64 1024.89 1025.00 1025.30 1025.75 1026.11 1026.17 1026.41 1026.52 1026.78 1027.38 1027.81 1028.09 1028.27 1028.29 1028.31 1028.54 1029.16 1029.51 1029.59 1029.81 1030.06 1030.52 1031.08 1030.89 1031.05 1031.06 1031.44 1031.68 1032.09 1032.35 1032.57 1032.79 1033.00 1033.11 1033.09 1033.03 1033.02
1014.09 1015.09 1015.92 1017.23 1017.23 1017.80 1018.77 1019.74 1020.40 1020.90 1021.02 1021.11 1021.62 1023.33 1024.28 1024.71 1025.40 1025.45 1025.52 1025.78 1025.96 1026.39 1026.96 1027.40 1027.62 1028.00 1028.56 1029.07 1029.28 1029.43 1029.77 1029.72 1029.86 1029.99 1030.18 1030.49 1030.80 1030.96 1031.15 1031.41 1031.34 1030.79 1031.48 1032.03 1032.11 1031.50 1031.33 1031.73 1032.42 1032.88 1033.10 1033.13 1032.99 1032.34
1016.25 1017.24 1017.74 1019.54 1019.64 1020.65 1021.88 1022.69 1022.89 1022.72 1022.67 1022.62 1023.62 1024.39 1024.90 1025.37 1025.92 1026.01 1026.22 1026.31 1026.59 1027.23 1028.22 1029.01 1029.81 1030.00 1030.12 1030.27 1030.47 1030.48 1030.58 1031.05 1031.13 1031.44 1031.68 1032.43 1032.32 1032.20 1032.02 1032.18 1032.46 1032.45 1032.54 1032.27 1030.98 1031.20 1030.26 1030.49 1030.68 1031.77 1032.35 1032.68 1032.42 1032.38
1018.38 1018.66 1020.00 1021.56 1022.90 1024.16 1024.35 1024.28 1024.20 1024.11 1023.69 1023.80 1024.02 1025.04 1025.86 1026.59 1026.74 1026.76 1027.02 1027.42 1028.06 1028.75 1029.49 1029.87 1030.42 1030.75 1031.70 1031.88 1032.22 1032.05 1031.77 1031.69 1031.76 1032.03 1032.28 1032.82 1032.62 1032.56 1032.46 1032.68 1032.92 1033.15 1032.85 1032.69 1031.89 1031.42 1031.12 1031.12 1030.90 1031.77 1032.62 1032.71 1032.98 1033.32
1019.19 1020.06 1021.53 1023.09 1024.60 1025.47 1025.45 1025.42 1024.83 1024.89 1025.46 1025.92 1026.58 1027.24 1027.89 1028.07 1027.89 1028.03 1028.27 1028.81 1029.16 1029.57 1030.21 1031.09 1031.41 1031.57 1031.90 1032.65 1032.64 1032.37 1032.62 1032.23 1032.10 1032.13 1032.21 1032.34 1032.63 1032.89 1033.02 1033.28 1033.21 1033.11 1032.74 1032.92 1032.62 1032.48 1032.52 1032.78 1033.12 1033.13 1033.30 1033.39 1033.56 1033.67
1020.54 1021.68 1022.71 1024.37 1025.37 1025.36 1025.66 1026.49 1026.67 1027.06 1028.08 1028.15 1028.83 1028.72 1029.19 1029.46 1029.60 1029.22 1029.33 1029.57 1029.97 1030.54 1030.89 1031.31 1032.15 1032.04 1031.87 1031.84 1031.85 1031.93 1032.07 1032.19 1032.46 1032.83 1032.95 1032.79 1033.23 1033.27 1033.32 1033.17 1033.38 1033.29 1033.54 1033.26 1033.15 1033.15 1033.26 1033.89 1033.86 1033.83 1033.88 1033.89 1033.89 1033.85
1021.74 1022.09 1023.06 1024.21 1025.06 1025.60 1025.92 1026.44 1027.60 1028.52 1028.89 1029.72 1029.80 1030.06 1030.45 1030.38 1030.39 1029.99 1029.73 1029.90 1029.98 1030.13 1030.65 1031.38 1031.65 1031.84 1031.94 1031.95 1031.89 1031.99 1032.33 1032.52 1032.54 1031.83 1032.34 1032.30 1032.53 1032.65 1033.19 1033.29 1033.30 1033.29 1033.57 1033.48 1033.52 1033.58 1033.81 1034.19 1034.22 1034.18 1034.15 1034.11 1034.01 1033.89
Thickness
5326 5327 5330 5335 5339 5344 5349 5355 5361 5367 5369 5370 5372 5374 5377 5380 5383 5385 5387 5387 5384 5384 5397 5408 5415 5415 5414 5416 5414 5423 5419 5422 5418 5423 5427 5432 5427 5454 5466 5476 5476 5477 5466 5478 5484 5481 5492 5538 5535 5528 5532 5544 5544 5550
5335 5337 5339 5343 5347 5351 5356 5360 5364 5367 5369 5372 5374 5375 5377 5379 5382 5381 5383 5384 5384 5383 5390 5397 5407 5417 5423 5428 5430 5427 5435 5435 5434 5422 5421 5424 5420 5420 5459 5460 5477 5473 5479 5472 5483 5499 5521 5532 5537 5537 5534 5537 5540 5541
5344 5346 5348 5350 5353 5357 5360 5364 5367 5371 5373 5374 5375 5376 5377 5379 5380 5380 5380 5381 5377 5378 5381 5389 5397 5408 5413 5419 5425 5424 5426 5442 5443 5439 5427 5432 5441 5431 5436 5445 5474 5478 5483 5481 5486 5518 5519 5527 5531 5527 5532 5533 5537 5539
5352 5353 5355 5357 5359 5361 5364 5368 5372 5374 5375 5376 5376 5376 5375 5375 5375 5374 5378 5379 5374 5376 5378 5381 5394 5404 5415 5416 5419 5424 5429 5433 5436 5437 5435 5427 5431 5448 5433 5461 5457 5470 5479 5485 5496 5510 5507 5524 5516 5513 5523 5529 5530 5533
5359 5359 5360 5362 5364 5364 5367 5370 5373 5375 5377 5378 5378 5377 5375 5374 5372 5370 5372 5375 5376 5375 5374 5377 5389 5402 5408 5412 5418 5422 5425 5426 5424 5425 5422 5430 5434 5444 5439 5446 5450 5460 5464 5464 5472 5471 5478 5487 5496 5493 5506 5509 5506 5524
5364 5364 5364 5364 5364 5364 5366 5368 5370 5371 5373 5375 5376 5376 5375 5372 5368 5367 5361 5366 5373 5372 5371 5367 5384 5395 5400 5406 5411 5418 5423 5420 5422 5420 5423 5434 5443 5450 5424 5421 5445 5446 5447 5448 5458 5457 5460 5469 5478 5475 5481 5490 5487 5484
5364 5365 5364 5363 5363 5364 5365 5365 5366 5368 5373 5375 5373 5373 5372 5369 5364 5363 5374 5382 5372 5367 5368 5367 5373 5394 5398 5401 5404 5408 5417 5418 5419 5420 5425 5428 5434 5437 5415 5424 5423 5422 5420 5429 5440 5442 5458 5460 5458 5455 5462 5474 5467 5460
5364 5364 5363 5364 5364 5364 5365 5367 5367 5366 5370 5372 5366 5367 5367 5363 5362 5368 5373 5377 5370 5364 5365 5360 5389 5394 5398 5396 5405 5405 5411 5416 5416 5410 5423 5425 5424 5417 5422 5401 5402 5405 5412 5423 5425 5426 5436 5439 5438 5440 5439 5450 5445 5439
5364 5364 5364 5364 5363 5364 5363 5360 5359 5364 5365 5363 5359 5359 5360 5360 5364 5369 5369 5365 5367 5367 5366 5373 5387 5396 5396 5401 5402 5404 5408 5408 5413 5416 5418 5424 5398 5378 5378 5382 5387 5389 5392 5403 5411 5417 5421 5425 5422 5422 5424 5430 5425 5420
5366 5365 5365 5364 5364 5363 5364 5361 5358 5364 5363 5367 5363 5360 5354 5362 5364 5366 5357 5358 5359 5364 5369 5367 5378 5392 5397 5398 5398 5401 5399 5411 5415 5413 5402 5389 5371 5368 5368 5368 5370 5376 5383 5391 5401 5406 5403 5410 5409 5407 5413 5410 5409 5408
5367 5367 5366 5366 5366 5368 5367 5365 5368 5370 5371 5366 5363 5369 5362 5363 5366 5363 5361 5365 5367 5372 5372 5378 5381 5400 5393 5403 5407 5396 5405 5401 5421 5414 5401 5378 5363 5357 5355 5356 5357 5362 5370 5375 5380 5380 5383 5384 5390 5393 5392 5388 5389 5389
5370 5372 5372 5373 5375 5374 5376 5375 5374 5375 5374 5375 5373 5365 5363 5358 5360 5369 5369 5369 5377 5385 5379 5387 5393 5397 5398 5408 5407 5407 5407 5406 5410 5384 5375 5353 5351 5345 5345 5347 5349 5352 5358 5362 5364 5366 5367 5370 5370 5373 5371 5368 5371 5370
5371 5374 5376 5376 5377 5380 5380 5381 5384 5383 5384 5378 5370 5354 5356 5334 5328 5332 5379 5374 5375 5372 5372 5386 5392 5391 5395 5403 5406 5408 5415 5397 5378 5362 5343 5339 5339 5338 5338 5340 5339 5341 5344 5347 5348 5350 5353 5354 5353 5358 5352 5348 5348 5347
5372 5373 5374 5376 5377 5381 5385 5387 5389 5387 5381 5364 5353 5320 5312 5303 5322 5336 5337 5345 5356 5362 5370 5378 5390 5391 5388 5395 5392 5388 5364 5368 5339 5321 5326 5327 5326 5325 5325 5326 5329 5328 5329 5332 5333 5334 5335 5335 5333 5332 5329 5327 5328 5327
5371 5372 5374 5375 5378 5381 5384 5388 5390 5389 5366 5348 5336 5309 5312 5317 5323 5329 5336 5346 5350 5357 5369 5381 5378 5374 5366 5368 5356 5360 5344 5316 5326 5313 5312 5314 5314 5316 5316 5317 5317 5318 5319 5320 5319 5319 5317 5316 5315 5312 5309 5306 5306 5307
5371 5373 5371 5372 5378 5381 5384 5387 5384 5376 5348 5329 5312 5308 5306 5314 5320 5324 5330 5336 5346 5352 5366 5373 5372 5354 5347 5350 5333 5319 5329 5307 5297 5296 5302 5303 5304 5304 5305 5305 5305 5306 5308 5307 5303 5301 5299 5297 5295 5291 5290 5287 5287 5287
5371 5366 5369 5373 5377 5381 5387 5381 5367 5343 5322 5309 5293 5294 5293 5296 5305 5315 5325 5335 5343 5357 5361 5358 5349 5340 5342 5324 5315 5312 5285 5289 5297 5298 5297 5296 5295 5294 5294 5295 5294 5293 5290 5289 5288 5286 5284 5278 5279 5280 5277 5271 5269 5267
5364 5364 5369 5374 5379 5380 5373 5363 5343 5324 5297 5289 5289 5294 5299 5306 5312 5320 5326 5335 5349 5351 5346 5337 5336 5321 5310 5312 5302 5300 5296 5295 5293 5290 5285 5282 5281 5282 5283 5281 5279 5277 5275 5272 5270 5267 5266 5265 5265 5261 5258 5254 5250 5247
5364 5366 5368 5372 5376 5369 5355 5341 5335 5306 5290 5289 5293 5301 5306 5308 5314 5318 5325 5329 5334 5337 5336 5323 5307 5306 5295 5294 5296 5294 5292 5291 5284 5277 5272 5269 5270 5270 5269 5268 5266 5263 5259 5256 5251 5248 5245 5244 5242 5240 5236 5231 5224 5219
5361 5361 5364 5370 5374 5361 5345 5331 5330 5317 5298 5298 5302 5304 5306 5306 5311 5319 5325 5333 5334 5327 5310 5300 5293 5294 5295 5294 5293 5290 5287 5283 5280 5273 5265 5262 5260 5259 5256 5254 5249 5244 5240 5235 5230 5229 5228 5223 5217 5213 5209 5205 5199 5189
5353 5355 5360 5364 5362 5357 5340 5333 5323 5315 5309 5312 5311 5311 5308 5312 5310 5310 5314 5321 5322 5302 5289 5282 5282 5282 5282 5282 5282 5280 5277 5275 5270 5268 5260 5253 5248 5246 5240 5234 5229 5225 5219 5212 5210 5206 5204 5198 5192 5187 5181 5170 5166 5163
5351 5356 5355 5360 5355 5349 5338 5334 5332 5326 5326 5320 5320 5317 5306 5289 5286 5297 5297 5294 5286 5276 5281 5277 5277 5278 5276 5272 5270 5268 5264 5262 5256 5250 5245 5241 5233 5226 5218 5213 5212 5204 5200 5191 5187 5175 5174 5172 5165 5160 5153 5144 5145 5139
5356 5358 5353 5354 5345 5338 5334 5336 5338 5337 5320 5317 5319 5311 5293 5276 5285 5297 5279 5278 5273 5270 5270 5270 5269 5268 5264 5260 5257 5253 5250 5246 5238 5230 5224 5218 5212 5203 5201 5194 5186 5178 5174 5169 5164 5156 5147 5144 5138 5131 5127 5123 5117 5113
5363 5351 5339 5334 5342 5317 5325 5321 5337 5330 5322 5316 5307 5296 5286 5279 5285 5273 5269 5266 5263 5262 5262 5261 5261 5258 5252 5246 5239 5234 5231 5227 5219 5209 5205 5201 5193 5184 5178 5171 5164 5156 5150 5145 5137 5128 5124 5114 5115 5113 5105 5102 5097 5096
5357 5337 5340 5333 5333 5332 5313 5302 5304 5315 5297 5295 5297 5287 5279 5285 5267 5251 5249 5252 5249 5242 5243 5246 5244 5238 5226 5219 5220 5218 5215 5212 5206 5197 5185 5183 5173 5165 5156 5148 5140 5134 5127 5117 5108 5105 5102 5098 5096 5095 5093 5089 5091 5088
5339 5327 5332 5324 5320 5331 5315 5303 5298 5296 5288 5286 5282 5276 5266 5256 5248 5239 5252 5232 5241 5228 5220 5220 5225 5224 5220 5217 5211 5205 5200 5196 5190 5178 5171 5165 5156 5138 5124 5117 5112 5110 5108 5102 5095 5090 5090 5088 5086 5087 5084 5084 5082 5078
5314 5315 5325 5319 5323 5322 5300 5293 5300 5295 5284 5286 5275 5257 5253 5236 5234 5246 5244 5236 5234 5224 5225 5219 5219 5216 5209 5201 5195 5188 5183 5178 5172 5161 5152 5144 5136 5127 5115 5102 5096 5096 5092 5088 5085 5082 5080 5078 5078 5077 5076 5074 5076 5074
5308 5308 5302 5283 5293 5293 5277 5272 5269 5268 5271 5284 5271 5241 5234 5231 5243 5239 5233 5229 5226 5222 5215 5209 5204 5199 5192 5184 5177 5172 5164 5157 5151 5143 5134 5125 5117 5110 5103 5097 5091 5087 5084 5082 5080 5078 5077 5075 5075 5074 5072 5072 5072 5071
5291 5283 5293 5270 5275 5270 5267 5252 5256 5267 5268 5252 5236 5234 5241 5240 5227 5226 5223 5221 5217 5211 5201 5190 5180 5174 5171 5165 5158 5152 5146 5138 5128 5114 5103 5094 5087 5093 5092 5087 5083 5081 5080 5079 5080 5079 5080 5078 5077 5074 5071 5068 5067 5064
5285 5278 5272 5248 5250 5248 5238 5242 5242 5243 5253 5250 5254 5248 5234 5224 5220 5215 5212 5207 5201 5192 5180 5173 5164 5158 5149 5144 5135 5133 5126 5119 5115 5111 5099 5086 5089 5089 5086 5083 5081 5079 5078 5077 5075 5077 5079 5076 5074 5070 5065 5061 5056 5052
5278 5267 5266 5258 5250 5240 5238 5228 5242 5240 5229 5228 5216 5215 5209 5205 5205 5201 5196 5186 5180 5176 5170 5159 5152 5143 5139 5127 5119 5112 5109 5106 5101 5097 5092 5088 5086 5084 5083 5081 5080 5079 5077 5074 5071 5068 5066 5062 5058 5056 5054 5051 5046 5041
5257 5244 5253 5248 5239 5234 5230 5212 5210 5206 5193 5201 5195 5183 5185 5184 5176 5184 5181 5177 5170 5163 5154 5145 5141 5138 5130 5123 5115 5109 5105 5098 5092 5088 5084 5081 5080 5079 5078 5077 5076 5075 5072 5068 5064 5061 5059 5055 5050 5047 5042 5040 5035 5032
5248 5247 5235 5232 5228 5226 5222 5224 5214 5204 5190 5187 5187 5176 5166 5168 5172 5172 5171 5166 5163 5158 5148 5140 5133 5126 5119 5112 5105 5099 5095 5090 5085 5081 5077 5076 5075 5074 5073 5072 5070 5068 5065 5061 5057 5054 5051 5048 5043 5039 5035 5030 5027 5023